Location: Bartlow
(52.0833°N, 0.3167°E)
Time: 04:16:07
(UTC+00:00)

ATLAS 3B R/B - Pass Details

Date: 26 September 2023
Orbit: 954 x 1241 km, 63.8° (Epoch: 27 October)

Event Time Altitude Azimuth Distance (km) Brightness Sun altitude
Rises 03:43:39 0° 314° (NW) 4,109 5.6 -19.7°
Reaches altitude 10° 03:46:22 10° 314° (NW) 3,168 5.0 -19.4°
Maximum altitude 03:54:04 79° 230° (SW) 1,263 2.9 -18.3°
Drops below altitude 10° 04:01:51 10° 145° (SE) 3,197 5.4 -17.2°
Sets 04:04:36 0° 144° (SE) 4,147 6.0 -16.8°
